Location: Lourdes
(43.1000°N, 0.0500°W)
Time: 17:00:13
(UTC+00:00)

SL-8 Rocket - Pass Details

Date: 30 November 2020
Orbit: 958 x 990 km, 82.9° (Epoch: 22 January)

Event Time Altitude Azimuth Distance (km) Brightness Sun altitude
Rises 16:49:16 0° 357° (N) 3,677 6.8 -4.5°
Reaches altitude 10° 16:51:55 10° 4° (N) 2,731 6.1 -4.9°
Maximum altitude 16:57:52 44° 76° (ENE) 1,334 4.3 -5.9°
Drops below altitude 10° 17:03:48 10° 147° (SSE) 2,734 6.3 -6.9°
Sets 17:06:27 0° 154° (SSE) 3,681 7.0 -7.4°
